Location: Mexico
(19.4000°N, 99.1500°W)
Time: 22:12:15
(UTC-06:00)

ISS - Pass Details

Date: 14 June 2019
Orbit: 407 x 418 km, 51.6° (Epoch: 27 June)

Event Time Altitude Azimuth Distance (km) Brightness Sun altitude
Rises 19:38:37 0° 296° (WNW) 2,339 3.0 -5.7°
Reaches altitude 10° 19:41:24 10° 270° (W) 1,479 0.2 -6.3°
Maximum altitude 19:43:16 14° 236° (SW) 1,249 -1.0 -6.6°
Drops below altitude 10° 19:45:08 10° 201° (SSW) 1,480 -1.0 -7.0°
Sets 19:47:56 0° 175° (S) 2,342 -0.3 -7.6°
